Weather History for John Bell Williams, Raymond, MS

Change the Weather History Date:

Wednesday, December 3, 2014

  Actual Average Record
Temperature  
Mean Temperature 56 °F -  
Max Temperature 69 °F - - ()
Min Temperature 44 °F - - ()
Degree Days  
Heating Degree Days 8    
Growing Degree Days 6 (Base 50)    
Moisture  
Dew Point 49 °F    
Average Humidity 84    
Maximum Humidity 88    
Minimum Humidity 81    
Precipitation  
Precipitation 0.00 in - - ()
Sea Level Pressure  
Sea Level Pressure 30.24 in    
Wind  
Wind Speed 1 mph (North)    
Max Wind Speed 6 mph    
Max Gust Speed -    
Visibility 5 miles    
Events      
T = Trace of Precipitation, MM = Missing Value Source: NWS Daily Summary

Daily Weather History Graph

Daily Weather History Graph

Search for Another Location

Airport:

Trip Planner

Search our weather history database for the weather conditions in past years. The results will help you decide how hot, cold, wet, or windy it might be!

Date:

Astronomy

Dec. 03, 2014 Rise Set
Actual Time 6:46 AM CST 4:56 PM CST
Civil Twilight 6:19 AM CST 5:23 PM CST
Nautical Twilight 5:49 AM CST 5:53 PM CST
Astronomical Twilight 5:19 AM CST 6:23 PM CST
Moon 3:08 PM CST (12/3) 3:44 AM CST (12/3)
Length of Visible Light 11h 03m
Length of Day
10h 09m
Waxing Gibbous, 91% of the Moon is Illuminated
Dec 3
Waxing Gibbous
Dec 6
Full
Dec 14
Last Quarter
Dec 21
New
Dec 28
First Quarter

Hourly Weather History & Observations

Time (CST) Temp. Windchill Dew Point Humidity Pressure Visibility Wind Dir Wind Speed Gust Speed Precip Events Conditions
12:15 AM 44.6 °F - 41.0 °F 87% 30.24 in 1.8 mi North - - N/A   Overcast
12:35 AM 44.6 °F - 41.0 °F 87% 30.24 in 2.5 mi Calm Calm - N/A   Overcast
12:55 AM 46.4 °F - 41.0 °F 81% 30.23 in 3.0 mi Calm Calm - N/A   Haze
1:15 AM 46.4 °F - 41.0 °F 81% 30.23 in 3.0 mi Calm Calm - N/A   Haze
1:35 AM 46.4 °F - 41.0 °F 81% 30.23 in 3.0 mi Calm Calm - N/A   Haze
1:55 AM 46.4 °F - 41.0 °F 81% 30.24 in 4.0 mi Calm Calm - N/A   Haze
2:15 AM 44.6 °F - 39.2 °F 81% 30.24 in 3.0 mi Calm Calm - N/A   Haze
2:55 AM 44.6 °F - 39.2 °F 81% 30.22 in 2.0 mi North - - N/A   Overcast
3:15 AM 44.6 °F 43.1 °F 39.2 °F 81% 30.23 in 1.2 mi NNW 3.5 mph - N/A   Haze
3:35 AM 44.6 °F - 39.2 °F 81% 30.23 in 0.2 mi Calm Calm - N/A   Haze
3:55 AM 44.6 °F - 39.2 °F 81% 30.22 in 0.2 mi Calm Calm - N/A   Haze
4:15 AM 44.6 °F - 39.2 °F 81% 30.23 in 0.2 mi Calm Calm - N/A   Haze
4:35 AM 44.6 °F - 39.2 °F 81% 30.23 in 0.2 mi Calm Calm - N/A   Haze
4:55 AM 44.6 °F - 39.2 °F 81% 30.24 in 0.2 mi Calm Calm - N/A   Haze
5:15 AM 44.6 °F - 39.2 °F 81% 30.24 in 0.2 mi Calm Calm - N/A   Haze
5:35 AM 44.6 °F 43.1 °F 39.2 °F 81% 30.25 in 0.2 mi North 3.5 mph - N/A   Haze
5:55 AM 44.6 °F - 39.2 °F 81% 30.25 in 0.2 mi Calm Calm - N/A   Haze
6:15 AM 44.6 °F - 39.2 °F 81% 30.25 in 0.2 mi Calm Calm - N/A   Haze
6:35 AM 44.6 °F - 39.2 °F 81% 30.26 in 0.5 mi Calm Calm - N/A   Haze
6:55 AM 44.6 °F - 39.2 °F 81% 30.27 in 1.0 mi Calm Calm - N/A   Overcast
7:15 AM 44.6 °F - 39.2 °F 81% 30.27 in 1.5 mi Calm Calm - N/A   Haze
7:35 AM 44.6 °F - 39.2 °F 81% 30.27 in 1.8 mi Calm Calm - N/A   Haze
7:55 AM 44.6 °F - 41.0 °F 87% 30.28 in 2.5 mi Calm Calm - N/A   Overcast
8:15 AM 46.4 °F 45.2 °F 41.0 °F 81% 30.29 in 3.0 mi North 3.5 mph - N/A   Overcast
8:35 AM 48.2 °F - 42.8 °F 82% 30.30 in 3.0 mi NNW 3.5 mph - N/A   Haze
8:55 AM 48.2 °F - 44.6 °F 87% 30.30 in 5.0 mi Calm Calm - N/A   Haze
9:15 AM 50.0 °F - 46.4 °F 87% 30.30 in 6.0 mi Calm Calm - N/A   Haze
9:35 AM 53.6 °F - 48.2 °F 82% 30.30 in 8.0 mi Calm Calm - N/A   Clear
9:55 AM 55.4 °F - 50.0 °F 82% 30.30 in 10.0 mi Calm Calm - N/A   Clear
10:15 AM 57.2 °F - 51.8 °F 82% 30.30 in 9.0 mi Calm Calm - N/A   Clear
10:35 AM 59.0 °F - 55.4 °F 88% 30.29 in 10.0 mi East 4.6 mph - N/A   Clear
10:55 AM 60.8 °F - 57.2 °F 88% 30.28 in 10.0 mi Calm Calm - N/A   Clear
11:15 AM 62.6 °F - 57.2 °F 82% 30.28 in 10.0 mi Calm Calm - N/A   Clear
11:35 AM 64.4 °F - 59.0 °F 83% 30.27 in 10.0 mi Calm Calm - N/A   Clear
11:55 AM 64.4 °F - 59.0 °F 83% 30.25 in 10.0 mi Calm Calm - N/A   Clear
12:15 PM 66.2 °F - 62.6 °F 88% 30.24 in 10.0 mi Calm Calm - N/A   Clear
12:35 PM 66.2 °F - 62.6 °F 88% 30.23 in 10.0 mi Calm Calm - N/A   Clear
12:55 PM 68.0 °F - 62.6 °F 83% 30.22 in 10.0 mi West 4.6 mph - N/A   Clear
1:15 PM 68.0 °F - 64.4 °F 88% 30.22 in 7.0 mi North 5.8 mph - N/A   Clear
1:35 PM 68.0 °F - 64.4 °F 88% 30.21 in 10.0 mi NW 4.6 mph - N/A   Clear
1:55 PM 68.0 °F - 64.4 °F 88% 30.21 in 10.0 mi North 3.5 mph - N/A   Clear
2:15 PM 69.8 °F - 64.4 °F 83% 30.21 in 10.0 mi North 4.6 mph - N/A   Clear
2:35 PM 68.0 °F - 64.4 °F 88% 30.20 in 10.0 mi North 4.6 mph - N/A   Clear
2:55 PM 68.0 °F - 62.6 °F 83% 30.20 in 10.0 mi North 5.8 mph - N/A   Clear
3:15 PM 68.0 °F - 62.6 °F 83% 30.20 in 10.0 mi North 4.6 mph - N/A   Clear
3:35 PM 68.0 °F - 62.6 °F 83% 30.21 in 10.0 mi Calm Calm - N/A   Clear
3:55 PM 66.2 °F - 62.6 °F 88% 30.21 in 10.0 mi Calm Calm - N/A   Clear
4:15 PM 66.2 °F - 60.8 °F 83% 30.21 in 10.0 mi North 3.5 mph - N/A   Clear
5:15 PM 62.6 °F - 57.2 °F 82% 30.23 in 3.0 mi NNW 4.6 mph - N/A   Haze
5:35 PM 60.8 °F - 57.2 °F 88% 30.24 in 3.0 mi North 5.8 mph - N/A   Mostly Cloudy
5:55 PM 59.0 °F - 55.4 °F 88% 30.24 in 4.0 mi NW 3.5 mph - N/A   Haze
6:35 PM 59.0 °F - 53.6 °F 82% 30.23 in 3.0 mi Calm Calm - N/A   Haze
6:55 PM 57.2 °F - 53.6 °F 88% 30.23 in 6.0 mi Calm Calm - N/A   Haze
7:15 PM 57.2 °F - 51.8 °F 82% 30.23 in 8.0 mi Calm Calm - N/A   Clear
7:35 PM 55.4 °F - 50.0 °F 82% 30.23 in 10.0 mi Calm Calm - N/A   Clear
7:55 PM 53.6 °F - 50.0 °F 88% 30.23 in 9.0 mi Calm Calm - N/A   Clear
8:15 PM 53.6 °F - 50.0 °F 88% 30.23 in 10.0 mi North - - N/A   Clear
8:35 PM 53.6 °F - 48.2 °F 82% 30.22 in 9.0 mi North - - N/A   Clear
8:55 PM 51.8 °F - 46.4 °F 82% 30.23 in 7.0 mi North - - N/A   Clear
9:15 PM 50.0 °F - 46.4 °F 87% 30.24 in 7.0 mi North - - N/A   Clear
9:35 PM 50.0 °F - 46.4 °F 87% 30.23 in 5.0 mi North - - N/A   Haze
9:55 PM 50.0 °F - 46.4 °F 87% 30.23 in 6.0 mi North - - N/A   Clear
10:15 PM 50.0 °F - 46.4 °F 87% 30.23 in 5.0 mi North - - N/A   Haze
10:35 PM 50.0 °F - 44.6 °F 82% 30.23 in 1.0 mi North - - N/A   Haze
10:55 PM 48.2 °F - 44.6 °F 87% 30.23 in 0.5 mi North - - N/A   Haze
11:15 PM 48.2 °F - 44.6 °F 87% 30.23 in 5.0 mi North - - N/A   Haze
11:35 PM 48.2 °F - 44.6 °F 87% 30.23 in 4.0 mi North - - N/A   Clear
11:55 PM 48.2 °F - 42.8 °F 82% 30.24 in 2.5 mi North - - N/A   Haze